Regional Weather Roundup
Issued by NWS

Home | Current Version | Previous Version | Graphics & Text | Print | Product List | Glossary On
Versions: 1 2 3 4 5 6 7 8 9 10 11 12 13 14 15 16 17 18 19 20 21 22 23 24 25 26 27
000
ASUS45 KCYS 220110
RWRWY

WYOMING REGIONAL WEATHER ROUNDUP
NATIONAL WEATHER SERVICE CHEYENNE WY
600 PM MST WED FEB 21 2018

NOTE:  "FAIR" INDICATES FEW OR NO CLOUDS BELOW 12,000 FEET
WITH NO SIGNIFICANT WEATHER AND/OR OBSTRUCTIONS TO VISIBILITY.

WYZ001-220200-
YELLOWSTONE NATIONAL PARK

CITY           SKY/WX    TMP DP  RH WIND       PRES   REMARKS
LK YELLOWSTONE   N/A      6  -1  73 CALM      29.93S
W YELLOWSTONE  NOT AVBL

$$
WYZ002>013-054>058-071-098>099-220200-
NORTHERN WYOMING

CITY           SKY/WX    TMP DP  RH WIND       PRES   REMARKS
JACKSON        CLOUDY    13   3  64 SW5       29.99S WCI   5
CODY           NOT AVBL
GREYBULL       FAIR      -1  -7  75 MISG      30.10S
WORLAND        FAIR       4  -2  76 NE5       30.07S WCI  -5
SHERIDAN       FAIR      -2  -9  72 SW6       30.07F WCI -14
BUFFALO        FAIR       9  -1  64 CALM      30.01F
GILLETTE       FAIR      11  -1  58 S5        30.07F WCI   3
HULETT         FAIR      14   1  57 MISG      30.11F
NEWCASTLE      FAIR       5  -6  61 CALM      30.17S

$$
WYZ014>020-022>026-101>103-220200-
CENTRAL WYOMING

CITY           SKY/WX    TMP DP  RH WIND       PRES   REMARKS
BIG PINEY      FAIR       8   0  69 CALM      30.03R
PINEDALE       FAIR       9  -4  56 CALM      30.03R
DUBOIS           N/A    N/A N/A N/A MISG        N/A
LANDER         FAIR       6  -2  69 N7        30.03S WCI  -6
RIVERTON       FAIR       0 -10  63 NW8       30.05R WCI -14
CASPER         FAIR      16   5  62 SW12      30.07R WCI   3
DOUGLAS        CLOUDY     5   0  79 SE6       30.12S WCI  -6

$$
WYZ021-027>030-104>119-220200-
SOUTHERN WYOMING

CITY           SKY/WX    TMP DP  RH WIND       PRES   REMARKS
EVANSTON       FAIR       9   0  67 E12       29.99R WCI  -6
FORT BRIDGER   MOCLDY     4  -3  75 S3        30.05S
ROCK SPRINGS   FAIR      11   0  61 SW3       30.04S
DIXON          CLOUDY    13   5  70 E5        30.07S WCI   5
RAWLINS        FAIR       9   1  70 N9        30.03S WCI  -4
SARATOGA       FAIR      14   5  67 E3        30.03S
LARAMIE        FAIR      10   4  76 N8        30.01R WCI  -2
CHEYENNE       FAIR      17   8  67 S8        30.08R WCI   7
TORRINGTON     FAIR      22  12  65 E8        30.16R WCI  12
PINE BLUFFS    FAIR      12   7  79 S3        30.13F

$$




USA.gov is the U.S. government's official web portal to all federal, state and local government web resources and services.